STARLINK-34103, 63962

Orbit data source: Space-Track

STARLINK-34103, 63962 is a payload satellite owned by SpaceX/Seattle (US) in LEO that was launched on Tue, 13 May 2025 UTC via an FALCON 9 launch vehicle from the Air Force Eastern Test Range (AFETR). Payload-class satellites include a variety of spacecraft equipped with specific instruments for various scientific and technological missions. These include communications satellites like Starlink; space stations such as the ISS; scientific satellites like the Hubble; Earth observation satellites from companies like Planet Labs, Umbra, and HawkEye 360; GPS; miniature CubeSats for education and research; and military/defense satellites.

Loading next visibility...
Identifier
63962, 2025-099L
Orbit
LEO
Country
Flag of USUS
Related business
Manufacturer
SpaceX/Seattle
Mission
Operational Commercial Communications
Bus & Motor
STARLINK V2MO, Unknown motor
Mass
575 kg wet, ~530 kg dry
Launch date (UTC)
2025-05-13 (7 months ago)
Launch vehicle
FALCON 9
Launch site
Air Force Eastern Test Range (AFETR)
Object type
Payload
Rocket body
Debris
Shape & HBR
Box + 2 Pan, 17.7 m
Radar Cross Section
36.964 m², Large (>1 m²)

Expand to show TLE details & history
Last TLE update: 11 hours ago

TLE from 11 hours ago
0 STARLINK-34103
1 63962U 25099L   25346.90188581  .00043939  00000-0  15965-2 0  9997
2 63962  43.0005 306.3182 0001541 263.4896  96.5780 15.27585635 34067
Epoch: 2025-12-12T21:38Z
TLE epoch observation values (Epoch: 2025-12-12T21:38:42.933Z)
Latitude
-0.00005°
Longitude
-100.1976°
Altitude
482.929 km
Speed
7.626 km/s
True Right ascension
20h 25m 16s
True Declination
0° 00' 00"
Sunlit
Object was in daylight at epoch
Visualization orbit readout
Latitude
Unknown
Longitude
Unknown
Altitude
Unknown
Speed
Unknown
Apparent Right ascension
Unknown
Apparent Declination
Unknown
Sunlit
N/A
Visualization observer readout
Local Sidereal Time
07:33:27
Azimuth
Unknown
Elevation
Unknown
Doppler factor
Unknown
Orbital elements
Apogee altitude
486.035 km
Perigee altitude
483.92 km
Semi-major axis
6,863.114 km
Eccentricity
0.00015
Inclination
43.0005°
RAAN
306.3182°
Arg. of periapsis
263.4896°
True anomaly
96.59554°
Mean anomaly
96.578°
Eccentric anomaly
96.58677°
Mean motion
3.81734 °/min
Orbital period
94.31 mins
BSTAR
0.0015965
Loading maneuver chart data...
Computing Atmospheric mass density...
Loading historical data...
Loading historical data...
Loading historical data...
Loading historical data...
Loading historical data...
Loading historical data...
Loading historical data...

Documentation

Showing up to 5 results
|